Regional Weather Roundup
Issued by NWS

Home | Current Version | Previous Version | Text Only | Print | Product List | Glossary On
Versions: 1 2 3 4 5 6 7 8 9 10 11 12 13 14 15 16 17 18 19 20 21 22 23 24 25 26 27 28 29 30 31 32 33 34 35 36 37 38 39 40 41 42 43 44 45 46 47 48 49 50
510
ASUS44 KJAN 022010
RWRMS

MISSISSIPPI HOURLY WEATHER ROUNDUP
NATIONAL WEATHER SERVICE JACKSON MS
200 PM CST MON MAR 02 2015

NOTE: "FAIR: INDICATES FEW OR NO CLOUDS BELOW 12,000 FEET WITH NO
SIGNIFICANT WEATHER AND/OR OBSTRUCTIONS TO VISIBILITY.

MSZ001>002-007>008-010>013-018>021-025>028-034>036-022100-
NORTHWEST MISSISSIPPI

CITY           SKY/WX    TMP DP  RH WIND       PRES   REMARKS
CLARKSDALE     CLOUDY    37  37 100 N13       30.36F WCI  29
CLEVELAND      CLOUDY    40  39  99 N12       30.34F WCI  33
GREENWOOD        N/A    N/A N/A N/A MISG      30.32F
GREENVILLE     CLOUDY    41  38  89 N12       30.32F FOG
OLIVE BRANCH   CLOUDY    39  37  93 N5        30.36F
OXFORD         CLOUDY    39  37  93 NE7       30.34F FOG     WCI  34
TUNICA         CLOUDY    37  36  93 N9        30.37F WCI  31
$$

MSZ003>006-009-014>017-022>024-029>033-037>039-022100-
NORTHEAST MISSISSIPPI

CITY           SKY/WX    TMP DP  RH WIND       PRES   REMARKS
COLUMBUS AFB   CLOUDY    47  47  99 NE9       30.30F
CORINTH        CLOUDY    46  36  66 NE6       30.34F
STARKVILLE     CLOUDY    45  45 100 N3        30.30F
TUPELO         LGT RAIN  44  40  85 E5        30.33F FOG
$$

MSZ040-058-022100-
CENTRAL MISSISSIPPI

CITY           SKY/WX    TMP DP  RH WIND       PRES   REMARKS
JACKSON INTL   LGT RAIN  53  52  96 N6        30.26F VSB 3/4
JACKSON HAWKNS LGT RAIN  51  50  96 N6        30.26F VSB 1/2
MERIDIAN KEY   CLOUDY    59  55  87 E5        30.27F
MERIDIAN NAS   CLOUDY    55  52  89 N5        30.28F
VICKSBURG      LGT RAIN  44  43  96 N7        30.29F FOG
$$

MSZ059>079-022100-
SOUTH MISSISSIPPI

CITY           SKY/WX    TMP DP  RH WIND       PRES   REMARKS
BROOKHAVEN     DRIZZLE   57  57 100 CALM      30.25F
HATTIESBURG    CLOUDY    63  61  93 NE3       30.25F FOG
MCCOMB         CLOUDY    63  62  97 NE5       30.22F
NATCHEZ        CLOUDY    46  45  93 N7        30.27S
PINE BELT      CLOUDY    61  57  88 E5        30.25F
$$

MSZ080>082-022100-
COASTAL MISSISSIPPI

CITY           SKY/WX    TMP DP  RH WIND       PRES   REMARKS
BILOXI         PTSUNNY   64  64 100 SE5       30.22F FOG
PASCAGOULA     CLOUDY    70  66  87 S6        30.22F
GULFPORT       FOG       64  63  96 CALM      30.22F VSB 1/4
$$



USA.gov is the U.S. government's official web portal to all federal, state and local government web resources and services.